Flag for Iran Weather past 2 weeks in Bandar-Abbas, Iran

Now
104 °F

Haze.


Feels Like: 102 °F
Forecast: 74 / 95 °F
Wind: 7 mph from Southwest

Location: Bandarabbass

Current Time: Apr 27, 2015 at 2:08:21 PM

Latest Report: Apr 27, 2015 at 1:30 PM


Visibility: 2 mi

Pressure: 29.80 "Hg

Humidity: 19%

Dew point: 54 °F

Location of Bandar-AbbasLocation

Historic Weather in Bandar-Abbas — Graph

°F

Bandar-Abbas temperature yesterday

Maximum temperature yesterday: 93 °F (at 5:30 PM)
Minimum temperature yesterday: 77 °F (at 5:30 AM)
Average temperature yesterday: 85 °F

Past Weeks' High & Low Weather Summary

 TemperatureHumidityPressure
High102 °F (Apr 27, 1:00 PM)94% (Apr 15, 3:30 AM)29.98 "Hg (Apr 15, 3:30 AM)
Low72 °F (Apr 13, 7:30 AM)21% (Apr 27, 1:00 PM)29.62 "Hg (Apr 18, 6:30 PM)
Average84 °F64%29.79 "Hg
* Reported Apr 12 12:30 PM — Apr 27 1:00 PM, Bandar-Abbas, Weather by CustomWeather, © 2015

Note: Actual official high and low records may vary slightly from our data, if they occured in-between our weather recording intervals... More about our weather records

Advertising

Bandar-Abbas weather history for previous 24 hours

 ConditionsComfort  
Time TempWeatherWind HumidityBarometerVisibility
1:00 PM
Mon, Apr 27
102 °FHaze.5 mph21%29.80 "Hg1 mi
12:30 PM100 °FHaze.12 mph25%29.83 "Hg1 mi
12:00 PM100 °FHaze.5 mph25%29.83 "Hg1 mi
11:30 AM99 °FHaze.9 mph27%29.83 "Hg1 mi
11:00 AM97 °FHaze.7 mph27%29.83 "Hg1 mi
10:30 AM97 °FHaze.5 mph32%29.83 "Hg2 mi
10:00 AM95 °FHaze.5 mph32%29.83 "Hg2 mi
9:30 AM95 °FHaze.5 mph30%29.83 "Hg1 mi
9:00 AM93 °FHaze.5 mph32%29.83 "Hg1 mi
8:30 AM88 °FHaze.5 mph52%29.80 "Hg1 mi
8:00 AM84 °FHaze.No wind58%29.80 "Hg1 mi
7:30 AM77 °FHaze.5 mph69%29.80 "Hg1 mi
7:00 AM75 °FHaze.No wind78%29.80 "Hg1 mi
6:30 AM75 °FFog.5 mph83%29.77 "Hg1 mi
5:30 AM77 °FFog.5 mph89%29.77 "Hg1 mi
4:30 AM79 °FFog.5 mph84%29.77 "Hg1 mi
3:30 AM79 °FFog.7 mph89%29.77 "Hg2 mi
2:30 AM79 °FFog.5 mph84%29.77 "Hg2 mi
2:00 AM79 °FFog.No wind89%29.77 "Hg2 mi
1:30 AM81 °FFog.No wind84%29.77 "Hg2 mi
1:00 AM81 °FFog.No wind84%29.77 "Hg2 mi
12:30 AM79 °FFog.No wind89%29.77 "Hg2 mi
12:00 AM79 °FFog.No wind89%29.77 "Hg2 mi
11:30 PM
Sun, Apr 26
81 °FFog.No wind84%29.77 "Hg2 mi
11:00 PM81 °FFog.No wind84%29.77 "Hg2 mi
10:30 PM82 °FFog.No wind84%29.77 "Hg2 mi
10:00 PM84 °FFog.5 mph79%29.77 "Hg2 mi
9:30 PM86 °FHaze.5 mph70%29.74 "Hg3 mi
9:00 PM84 °FHaze.5 mph74%29.74 "Hg3 mi
8:30 PM84 °FHaze.12 mph74%29.71 "Hg3 mi
8:00 PM84 °FHaze.12 mph74%29.71 "Hg3 mi
7:30 PM90 °FHaze.12 mph63%29.68 "Hg3 mi
7:00 PM90 °FHaze.14 mph55%29.68 "Hg3 mi
6:30 PM91 °FHaze.12 mph52%29.68 "Hg3 mi
6:00 PM91 °FSunny.14 mph49%29.68 "Hg3 mi
5:30 PM93 °FHaze.14 mph53%29.68 "Hg3 mi
5:00 PM91 °FHaze.14 mph59%29.68 "Hg3 mi
4:30 PM91 °FHaze.14 mph59%29.71 "Hg3 mi
4:00 PM90 °FHaze.14 mph63%29.71 "Hg2 mi
3:30 PM90 °FHaze.14 mph67%29.71 "Hg2 mi
3:00 PM90 °FSandstorm.16 mph67%29.71 "Hg2 mi
2:30 PM90 °FSandstorm.16 mph67%29.74 "Hg2 mi
2:00 PM90 °FSunny.12 mph67%29.77 "Hg2 mi
Weather by CustomWeather, © 2015

See weather overviewHow to use our weather pages